Back to catalog

FENGYUN 1C DEB

AliveSSO
NORAD 29847·DEBRIS·🇨🇳 China

Launched May 10, 1999 from Taiyuan Satellite Launch Center

Loading…

Next Passes (next 24 hours)

TLE

FreshSource: Space-Track

Epoch: Sep 14, 2026, 10:30 UTC

1 29847U 99025ER  26257.43801216  .00000245  00000-0  17993-3 0  9995
2 29847  98.9188 252.6282 0084516 351.3249 173.0901 14.03174277  6028

Track FENGYUN 1C DEB in real time with AllMySat

Download on the App Store